Location: Bemmer
(51.5498°N, 5.6249°E)
Time: 18:00:20
(UTC+00:00)

Okean 1-7 - Pass Details

Date: 03 March 2021
Orbit: 589 x 619 km, 82.5° (Epoch: 13 April)

Event Time Altitude Azimuth Distance (km) Brightness Sun altitude
Rises 19:33:38 0° 344° (NNW) 2,901 7.0 -21.1°
Reaches altitude 10° 19:35:57 10° 337° (NNW) 1,987 6.2 -21.5°
Maximum altitude 19:40:05 41° 268° (W) 889 4.3 -22.1°
Drops below altitude 10° 19:44:09 10° 198° (SSW) 1,955 5.6 -22.7°
Enters shadow 19:45:52 - 192° (SSW) 2,626 6.2 -22.9°
